map of JED home
JED - Airport
Location
City:  Jeddah, Saudi Arabia
Name:King Abdul Aziz International Airport
ICAO:OEJN
IATA:JED

Details
Type:Airport (Aerodrome, Airfield)
Use:Public/Civil, Military, International (customs port of entry)
Latitude:2140'52"N (21.681111)
Longitude:3909'20"E (39.155556)
Elevation:48 ft (15 m)
Variation:3.50E (WMM2015 magnetic declination)
0.06 annual change
Runways:3
Longest:13123 × 197 ft (4000 × 60 m), paved

Time
Time Zone:UTC+3
Local Time:

Weather
METAR:OEJN 220800Z 29004KT CAVOK 33/22 Q1010 NOSIG
TAF:OEJN 211100Z 2112/2218 30012KT CAVOK
BECMG 2118/2120 03006KT 7000 SKC

Related Locations
Nearby:
Farthest:UOA: 12317 mi / 19822 km
Mururoa Atoll [Mururoa Airstrip], PF

Find:

   beyond  
but within

Other Information
Maps:
NOTAMs:
Links:
Sources:

  
flag of Saudi Arabia   

Sectional Chart

Flight Planning
at skyvector.com

Satellite Image

Google Maps Satellite view

 

Copyright © 2004-2017 Karl L. Swartz. All rights reserved.
The Great Circle Mapper name and logo are trademarks of the Great Circle Mapper.
All other trademarks mentioned herein belong to their respective owners.
Please see credits for attibutions and further copyright information.

  Follow gcmap on Facebook Follow gcmap on Twitter Follow gcmap on Google+ GCmap on LinkedIn

hCard Microformat

Geo Microformat